When you browse on this site, cookies collect data to enhance your experience and personalize the content and advertising you see.
Visit our Privacy Policy to learn more. By continuing to use the site, you agree to this use of cookies and data.
  • In Czech Republic
  • List of Countries
  • For 7 days
  • Water Temperature
  • Satellite Maps
  • Weather Map
  • Weather Widgets
  • user-avatar
    Login

    Hourly Weather Kerns

    Today, 14 December, Friday

    Time Temperature Precipitation Wind Pressure Humidity
    00:00 +28°C° 1.9 mm 2 mps 754 mmHg 91%
    01:00 +28°C° 1.9 mm 2 mps 754 mmHg 91%
    02:00 +28°C° 0.5 mm 2 mps 754 mmHg 92%
    03:00 +28°C° 0.5 mm 1 mps 753 mmHg 93%
    04:00 +27°C° 0 mm 1 mps 753 mmHg 94%
    05:00 +28°C° 0 mm 1 mps 753 mmHg 93%
    06:00 +28°C° 0 mm 2 mps 754 mmHg 91%
    07:00 +29°C° 0 mm 2 mps 754 mmHg 90%
    08:00 +31°C° 0.2 mm 2 mps 754 mmHg 82%
    09:00 +33°C° 0.2 mm 3 mps 754 mmHg 75%
    10:00 +34°C° 0 mm 2 mps 754 mmHg 71%
    11:00 +34°C° 0.2 mm 2 mps 754 mmHg 69%
    12:00 +35°C° 0.2 mm 3 mps 753 mmHg 66%
    13:00 +36°C° 0.2 mm 3 mps 753 mmHg 64%
    14:00 +35°C° 0.3 mm 3 mps 752 mmHg 67%
    15:00 +35°C° 0.3 mm 3 mps 752 mmHg 70%
    16:00 +34°C° 0 mm 2 mps 752 mmHg 73%
    17:00 +31°C° 0.2 mm 2 mps 752 mmHg 78%
    18:00 +30°C° 0.2 mm 2 mps 753 mmHg 82%
    19:00 +29°C° 0.2 mm 2 mps 753 mmHg 87%
    20:00 +29°C° 0.6 mm 2 mps 753 mmHg 88%
    21:00 +28°C° 0.6 mm 1 mps 754 mmHg 90%
    22:00 +28°C° 0.6 mm 1 mps 754 mmHg 91%
    23:00 +28°C° 0.4 mm 1 mps 754 mmHg 92%

    Tomorrow, 15 December, Saturday

    Time Temperature Precipitation Wind Pressure Humidity
    00:00 +28°C° 0.4 mm 1 mps 754 mmHg 93%
    01:00 +27°C° 0.4 mm 1 mps 753 mmHg 94%
    02:00 +27°C° 0.2 mm 1 mps 753 mmHg 94%
    03:00 +27°C° 0.2 mm 1 mps 753 mmHg 94%
    04:00 +27°C° 0.2 mm 1 mps 753 mmHg 95%
    05:00 +27°C° 0.2 mm 1 mps 753 mmHg 93%
    06:00 +27°C° 0.2 mm 1 mps 754 mmHg 92%
    07:00 +28°C° 0.2 mm 1 mps 754 mmHg 91%
    08:00 +29°C° 0.4 mm 2 mps 754 mmHg 85%
    09:00 +31°C° 0.4 mm 2 mps 754 mmHg 79%
    10:00 +33°C° 0.4 mm 3 mps 754 mmHg 73%
    11:00 +33°C° 0.7 mm 3 mps 753 mmHg 76%
    12:00 +33°C° 0.7 mm 3 mps 753 mmHg 78%
    13:00 +31°C° 0.7 mm 3 mps 752 mmHg 81%
    14:00 +31°C° 0.7 mm 3 mps 752 mmHg 83%
    15:00 +30°C° 0.7 mm 4 mps 751 mmHg 85%
    16:00 +30°C° 0.7 mm 4 mps 751 mmHg 87%
    17:00 +29°C° 0.8 mm 4 mps 751 mmHg 90%
    18:00 +29°C° 0.8 mm 4 mps 751 mmHg 92%
    19:00 +28°C° 0.8 mm 4 mps 751 mmHg 95%
    20:00 +28°C° 1.6 mm 5 mps 751 mmHg 96%
    21:00 +28°C° 1.6 mm 5 mps 752 mmHg 96%
    22:00 +28°C° 1.6 mm 6 mps 752 mmHg 97%
    23:00 +28°C° 1.8 mm 6 mps 751 mmHg 96%

    Day after tomorrow, 16 December, Sunday

    Time Temperature Precipitation Wind Pressure Humidity
    00:00 +28°C° 1.8 mm 6 mps 751 mmHg 96%
    01:00 +28°C° 1.8 mm 6 mps 751 mmHg 96%
    02:00 +28°C° 0.6 mm 6 mps 750 mmHg 96%
    03:00 +28°C° 0.6 mm 6 mps 750 mmHg 96%
    04:00 +28°C° 0.6 mm 5 mps 750 mmHg 97%
    05:00 +28°C° 0.9 mm 5 mps 750 mmHg 97%
    06:00 +28°C° 0.9 mm 4 mps 751 mmHg 96%
    07:00 +28°C° 0.9 mm 4 mps 751 mmHg 96%
    08:00 +29°C° 0.6 mm 3 mps 752 mmHg 95%
    09:00 +29°C° 0.6 mm 3 mps 752 mmHg 93%
    10:00 +29°C° 0.6 mm 3 mps 752 mmHg 91%
    11:00 +31°C° 0.4 mm 3 mps 752 mmHg 87%
    12:00 +32°C° 0.4 mm 2 mps 751 mmHg 82%
    13:00 +34°C° 0.4 mm 2 mps 751 mmHg 77%
    14:00 +34°C° 1.3 mm 2 mps 750 mmHg 78%
    15:00 +34°C° 1.3 mm 2 mps 750 mmHg 79%
    16:00 +34°C° 1.3 mm 2 mps 750 mmHg 80%
    17:00 +32°C° 1.1 mm 2 mps 750 mmHg 83%
    18:00 +31°C° 1.1 mm 2 mps 750 mmHg 86%
    19:00 +30°C° 1.1 mm 2 mps 751 mmHg 89%
    20:00 +29°C° 0 mm 2 mps 751 mmHg 89%
    21:00 +29°C° 0 mm 2 mps 752 mmHg 89%
    22:00 +28°C° 0 mm 2 mps 752 mmHg 89%
    23:00 +28°C° 0 mm 2 mps 752 mmHg 90%

    17 December, Monday

    Time Temperature Precipitation Wind Pressure Humidity
    00:00 +27°C° 0 mm 2 mps 752 mmHg 90%
    01:00 +27°C° 0 mm 2 mps 752 mmHg 90%
    02:00 +27°C° 0 mm 2 mps 752 mmHg 91%
    03:00 +27°C° 0 mm 2 mps 752 mmHg 91%
    04:00 +27°C° 0 mm 2 mps 751 mmHg 92%
    05:00 +27°C° 0 mm 2 mps 752 mmHg 90%
    06:00 +27°C° 0 mm 2 mps 752 mmHg 89%
    07:00 +28°C° 0 mm 2 mps 753 mmHg 87%
    08:00 +30°C° 0 mm 2 mps 753 mmHg 77%
    09:00 +34°C° 0 mm 2 mps 753 mmHg 66%
    10:00 +36°C° 0 mm 2 mps 754 mmHg 55%
    11:00 +37°C° 0 mm 2 mps 753 mmHg 52%
    12:00 +38°C° 0 mm 3 mps 753 mmHg 49%
    13:00 +39°C° 0 mm 3 mps 752 mmHg 45%
    14:00 +39°C° 0 mm 3 mps 752 mmHg 48%
    15:00 +39°C° 0 mm 3 mps 751 mmHg 50%
    16:00 +38°C° 0 mm 3 mps 751 mmHg 52%
    17:00 +36°C° 0.2 mm 3 mps 752 mmHg 64%
    18:00 +34°C° 0.2 mm 3 mps 752 mmHg 76%
    19:00 +30°C° 0.2 mm 2 mps 753 mmHg 88%
    20:00 +30°C° 0.4 mm 2 mps 753 mmHg 89%
    21:00 +29°C° 0.4 mm 2 mps 754 mmHg 90%
    22:00 +29°C° 0.4 mm 1 mps 755 mmHg 91%
    23:00 +29°C° 0.1 mm 1 mps 754 mmHg 92%

    18 December, Tuesday

    Time Temperature Precipitation Wind Pressure Humidity
    00:00 +29°C° 0.1 mm 1 mps 754 mmHg 92%
    01:00 +29°C° 0.1 mm 1 mps 754 mmHg 93%
    02:00 +28°C° 0 mm 1 mps 754 mmHg 92%
    03:00 +28°C° 0 mm 1 mps 754 mmHg 92%
    04:00 +28°C° 0 mm 1 mps 753 mmHg 91%
    05:00 +28°C° 0 mm 1 mps 754 mmHg 89%
    06:00 +29°C° 0 mm 1 mps 754 mmHg 87%
    07:00 +29°C° 0 mm 1 mps 755 mmHg 85%
    08:00 +32°C° 0 mm 1 mps 755 mmHg 75%
    09:00 +34°C° 0 mm 1 mps 755 mmHg 65%
    10:00 +37°C° 0 mm 1 mps 756 mmHg 55%
    11:00 +38°C° 0 mm 2 mps 755 mmHg 53%
    12:00 +39°C° 0 mm 2 mps 755 mmHg 51%
    13:00 +40°C° 0 mm 3 mps 754 mmHg 48%
    14:00 +38°C° 0.3 mm 3 mps 754 mmHg 56%
    15:00 +37°C° 0.3 mm 3 mps 754 mmHg 64%
    16:00 +35°C° 0.3 mm 3 mps 753 mmHg 72%
    17:00 +34°C° 0.7 mm 3 mps 754 mmHg 78%
    18:00 +31°C° 0.7 mm 3 mps 754 mmHg 85%
    19:00 +30°C° 0.7 mm 2 mps 755 mmHg 92%
    20:00 +30°C° 0.4 mm 2 mps 755 mmHg 92%
    21:00 +29°C° 0.4 mm 2 mps 756 mmHg 93%
    22:00 +29°C° 0.4 mm 2 mps 757 mmHg 93%
    23:00 +29°C° 0.4 mm 2 mps 756 mmHg 94%

    19 December, Wednesday

    Time Temperature Precipitation Wind Pressure Humidity
    00:00 +29°C° 0.4 mm 2 mps 756 mmHg 94%
    01:00 +28°C° 0.4 mm 2 mps 756 mmHg 94%
    02:00 +28°C° 0 mm 2 mps 756 mmHg 94%
    03:00 +28°C° 0 mm 2 mps 755 mmHg 94%
    04:00 +28°C° 0 mm 2 mps 755 mmHg 94%
    05:00 +28°C° 0 mm 2 mps 756 mmHg 92%
    06:00 +29°C° 0 mm 2 mps 756 mmHg 90%
    07:00 +29°C° 0 mm 2 mps 757 mmHg 88%
    08:00 +31°C° 0 mm 2 mps 757 mmHg 80%
    09:00 +35°C° 0 mm 2 mps 757 mmHg 71%
    10:00 +37°C° 0 mm 3 mps 757 mmHg 62%
    11:00 +36°C° 0.5 mm 3 mps 756 mmHg 65%
    12:00 +36°C° 0.5 mm 3 mps 756 mmHg 68%
    13:00 +36°C° 0.5 mm 3 mps 755 mmHg 71%
    14:00 +35°C° 1.4 mm 3 mps 755 mmHg 75%
    15:00 +34°C° 1.4 mm 3 mps 755 mmHg 79%
    16:00 +33°C° 1.4 mm 3 mps 754 mmHg 83%
    17:00 +31°C° 1.4 mm 3 mps 755 mmHg 86%
    18:00 +30°C° 1.4 mm 3 mps 755 mmHg 89%
    19:00 +30°C° 1.4 mm 3 mps 756 mmHg 92%
    20:00 +29°C° 0.7 mm 3 mps 756 mmHg 93%
    21:00 +29°C° 0.7 mm 3 mps 756 mmHg 93%
    22:00 +29°C° 0.7 mm 3 mps 757 mmHg 93%
    23:00 +29°C° 0.1 mm 3 mps 756 mmHg 94%
    Show more